Location: Fontevrault
(47.1823°N, 0.0493°E)
Time: 12:43:13
(UTC+00:00)

Cosmos 2058 Rocket - Visible Passes

Search period start: 23 October 2021 00:00
Search period end: 02 November 2021 00:00
Orbit: 610 x 639 km, 82.5° (Epoch: 22 October)

Date Brightness Start Highest point End Pass type
(mag) Time Alt. Az. Time Alt. Az. Time Alt. Az.
23 Oct 5.9 05:42:45 10° NNE 05:45:38 17° ENE 05:48:31 10° ESE visible
26 Oct 6.2 05:03:11 10° NE 05:04:49 12° ENE 05:06:25 10° E visible
27 Oct 5.8 05:20:59 10° NNE 05:24:17 20° ENE 05:27:32 10° ESE visible
28 Oct 4.8 05:39:34 10° N 05:43:37 35° ENE 05:47:37 10° SE visible
29 Oct 3.5 05:58:28 10° N 06:02:50 66° E 06:07:10 10° SSE visible
29 Oct 5.1 18:33:59 10° SSE 18:34:42 14° SSE 18:34:42 14° SSE visible
30 Oct 6.1 04:41:05 10° NNE 04:43:28 14° ENE 04:45:50 10° E visible
30 Oct 3.4 18:52:39 10° S 18:55:57 48° SSE 18:55:57 48° SSE visible
30 Oct 6.2 20:33:11 10° W 20:33:23 11° W 20:33:23 11° W visible
31 Oct 5.4 04:59:17 10° NNE 05:02:54 24° ENE 05:06:28 10° SE visible
31 Oct 4.7 17:36:31 10° ESE 17:38:45 14° E 17:40:04 12° ENE visible
31 Oct 3.4 19:11:47 10° SSW 19:16:11 64° WNW 19:17:32 41° NNW visible
01 Nov 4.3 05:18:00 10° N 05:22:12 43° ENE 05:26:21 10° SSE visible
01 Nov 4.1 17:54:00 10° SE 17:57:35 25° E 18:01:10 10° NE visible
01 Nov 4.6 19:31:22 10° SW 19:35:25 35° WNW 19:39:28 10° N visible
